Corpus Christi, TX

11:44 AM CDT on September 27, 2016 (GMT -0500)
Corpus Christi International

Weather History for KCRP - March, 2013

Change the Weather History Date:

Tuesday, March 5, 2013

  Actual Average Record
Temperature  
Mean Temperature 65 °F 64 °F  
Max Temperature 75 °F 74 °F 93 °F (1991)
Min Temperature 55 °F 54 °F 32 °F (2007)
Degree Days  
Heating Degree Days 0 4  
Month to date heating degree days 20 20  
Since 1 July heating degree days 472 820  
Cooling Degree Days 0 3  
Month to date cooling degree days 11 14  
Year to date cooling degree days 155 90  
Growing Degree Days 15 (Base 50)    
Moisture  
Dew Point 40 °F    
Average Humidity 53    
Maximum Humidity 90    
Minimum Humidity 15    
Precipitation  
Precipitation 0.00 in 0.08 in 1.89 in (1948)
Month to date precipitation 0.00 0.36  
Year to date precipitation 1.69 3.83  
Snow  
Snow 0.00 in - - ()
Month to date snowfall 0.0  
Since 1 July snowfall 0.0  
Snow Depth 0.00 in    
Sea Level Pressure  
Sea Level Pressure 30.11 in    
Wind  
Wind Speed 17 mph (NNE)    
Max Wind Speed 39 mph    
Max Gust Speed 47 mph    
Visibility 10 miles    
Events      
T = Trace of Precipitation, MM = Missing Value Source: NWS Daily Summary

Daily Weather History Graph

Daily Weather History Graph

Search for Another Location

Airport or City:

Trip Planner

Search our weather history database for the weather conditions in past years. The results will help you decide how hot, cold, wet, or windy it might be!

Date:

Astronomy

Mar. 05, 2013 Rise Set
Actual Time 6:50 AM CST 6:33 PM CST
Civil Twilight 6:26 AM CST 6:56 PM CST
Nautical Twilight 5:59 AM CST 7:23 PM CST
Astronomical Twilight 5:32 AM CST 7:50 PM CST
Moon 1:41 AM CST (3/5) 12:35 PM CST (3/5)
Length of Visible Light 12h 29m
Length of Day
11h 43m
Last Quarter, 40% of the Moon is Illuminated
Mar 5
Last Quarter
Mar 11
New
Mar 19
First Quarter
Mar 27
Full
Apr 2
Last Quarter

Hourly Weather History & Observations

Time (CST) Temp. Dew Point Humidity Pressure Visibility Wind Dir Wind Speed Gust Speed Precip Events Conditions
1:51 AM 64.9 °F 60.1 °F 84% 29.81 in 10.0 mi South 15.0 mph - N/A   Clear
2:51 AM 64.0 °F 59.0 °F 84% 29.82 in 10.0 mi South 10.4 mph - N/A   Clear
3:51 AM 64.0 °F 59.0 °F 84% 29.80 in 10.0 mi South 11.5 mph - N/A   Clear
4:51 AM 61.0 °F 57.0 °F 87% 29.82 in 10.0 mi South 8.1 mph - N/A   Clear
5:51 AM 59.0 °F 55.9 °F 90% 29.86 in 10.0 mi South 5.8 mph - N/A   Clear
6:27 AM 57.2 °F 55.4 °F 94% 29.97 in 10.0 mi North 34.5 mph 43.7 mph N/A   Squalls
6:39 AM 64.4 °F 60.8 °F 88% 30.00 in 10.0 mi NNW 25.3 mph 31.1 mph N/A   Mostly Cloudy
6:51 AM 64.9 °F 60.1 °F 84% 29.99 in 10.0 mi NNW 13.8 mph 24.2 mph N/A   Mostly Cloudy
7:29 AM 66.2 °F 60.8 °F 83% 30.02 in 10.0 mi NNE 12.7 mph - N/A   Mostly Cloudy
7:51 AM 66.2 °F 60.8 °F 83% 30.01 in 10.0 mi NE 12.7 mph - N/A   Partly Cloudy
8:51 AM 61.0 °F 46.0 °F 58% 30.10 in 10.0 mi North 34.5 mph 42.6 mph N/A   Mostly Cloudy
9:51 AM 59.0 °F 39.9 °F 49% 30.15 in 10.0 mi NNE 25.3 mph 41.4 mph N/A   Overcast
10:42 AM 62.6 °F 39.2 °F 42% 30.18 in 10.0 mi NNE 26.5 mph 36.8 mph N/A   Mostly Cloudy
10:51 AM 62.1 °F 39.0 °F 43% 30.19 in 10.0 mi NNE 28.8 mph 35.7 mph N/A   Mostly Cloudy
11:51 AM 68.0 °F 37.9 °F 33% 30.20 in 10.0 mi NNE 27.6 mph 35.7 mph N/A   Mostly Cloudy
12:51 PM 72.0 °F 36.0 °F 27% 30.20 in 10.0 mi NNE 27.6 mph 35.7 mph N/A   Mostly Cloudy
1:51 PM 73.9 °F 34.0 °F 23% 30.20 in 10.0 mi North 25.3 mph 33.4 mph N/A   Partly Cloudy
2:51 PM 73.0 °F 30.9 °F 21% 30.20 in 10.0 mi North 23.0 mph 32.2 mph N/A   Partly Cloudy
3:51 PM 71.1 °F 26.1 °F 19% 30.21 in 10.0 mi North 21.9 mph 29.9 mph N/A   Partly Cloudy
4:51 PM 71.1 °F 21.9 °F 16% 30.21 in 10.0 mi North 20.7 mph - N/A   Partly Cloudy
5:51 PM 70.0 °F 21.9 °F 16% 30.23 in 10.0 mi North 15.0 mph - N/A   Clear
6:51 PM 64.0 °F 24.1 °F 22% 30.25 in 10.0 mi North 11.5 mph - N/A   Clear
7:51 PM 57.9 °F 27.0 °F 31% 30.27 in 10.0 mi North 9.2 mph - N/A   Clear
8:51 PM 55.9 °F 27.0 °F 33% 30.28 in 10.0 mi North 9.2 mph - N/A   Clear
9:51 PM 57.0 °F 21.0 °F 25% 30.30 in 10.0 mi NNE 10.4 mph - N/A   Clear
10:51 PM 57.0 °F 19.9 °F 24% 30.32 in 10.0 mi NNE 15.0 mph - N/A   Clear
11:51 PM 55.0 °F 21.0 °F 27% 30.32 in 10.0 mi NNE 12.7 mph - N/A   Clear